Hourly Data Report for January 12, 2019

TORONTO CITY
ONTARIO
Current Station Operator: ECCC - MSC

43°40'00.000" N
79°24'00.000" W
112.50 m
6158355
71508
XTO

Download Data

Hourly Data (January 2019)
Hourly Data Report for January 12, 2019
TIME
LST
Temp Definition
°C
Dew Point Definition
°C
Rel Hum Definition
%
Precip. Amount Definition
mm

Wind Dir Definition
10's deg

Wind Spd Definition
km/h
Visibility Definition
km
Stn Press Definition
kPa
Hmdx Definition


Wind Chill Definition


Weather Definition


00:00 -6.8 -13.6 58 0.0 LegendMM LegendMM   101.73     LegendNANA
01:00 -6.5 -13.3 58 0.0 LegendMM LegendMM   101.73     LegendNANA
02:00 -6.2 -13.0 59 0.0 LegendMM LegendMM   101.78     LegendNANA
03:00 -6.4 -13.5 57 0.0 LegendMM LegendMM   101.82     LegendNANA
04:00 -6.2 -14.3 53 0.0 LegendMM LegendMM   101.80     LegendNANA
05:00 -6.2 -14.2 53 0.0 LegendMM LegendMM   101.82     LegendNANA
06:00 -6.1 -14.5 52 0.0 LegendMM LegendMM   101.87     LegendNANA
07:00 -6.4 -13.4 57 0.0 LegendMM LegendMM   101.92     LegendNANA
08:00 -6.6 -12.1 65 0.0 LegendMM LegendMM   101.96     LegendNANA
09:00 -6.5 -11.9 65 0.0 LegendMM LegendMM   102.06     LegendNANA
10:00 -6.0 -11.6 65 0.0 LegendMM LegendMM   102.13     LegendNANA
11:00 -5.9 -11.9 62 0.0 LegendMM LegendMM   102.13     LegendNANA
12:00 -4.9 -12.5 55 0.0 LegendMM LegendMM   102.07     LegendNANA
13:00 -4.1 -11.7 55 0.0 LegendMM LegendMM   102.02     LegendNANA
14:00 -4.8 -12.4 55 0.0 LegendMM LegendMM   102.00     LegendNANA
15:00 -4.5 -12.4 54 0.0 LegendMM LegendMM   101.96     LegendNANA
16:00 -4.5 -12.6 53 0.0 LegendMM LegendMM   101.94     LegendNANA
17:00 -4.8 -14.3 47 0.0 LegendMM LegendMM   101.96     LegendNANA
18:00 -4.9 -15.0 45 0.0 LegendMM LegendMM   102.01     LegendNANA
19:00 -5.5 -14.4 49 0.0 LegendMM LegendMM   102.05     LegendNANA
20:00 -6.1 -13.8 54 0.0 LegendMM LegendMM   102.02     LegendNANA
21:00 -6.3 -14.7 51 0.0 LegendMM LegendMM   101.98     LegendNANA
22:00 -6.8 -16.7 45 0.0 LegendMM LegendMM   101.99     LegendNANA
23:00 -7.0 -17.5 43 0.0 LegendMM LegendMM   101.97     LegendNANA

Notes on Data Quality.

Legend

  • E = Estimated
  • M = Missing
  • NA = Not Available*
  • [empty] = Indicates an unobserved value
Date modified: